Find Kosmos-1994

NORAD ID: 19785 Int'l Des: 1989-009 Owner: UNKS Country: SU operational
LEOCIRCULARPOLAR

Live Position

Loading 3D Globe...

About Kosmos-1994

Description loading...

Upcoming Passes

Passes for default location (London). Set your location on the main map for personalized predictions.

Altitude History

Loading altitude history...

Two-Line Element Set

1 19785U 89009A 26106.57590406 .00000011 00000-0 19634-5 0 9997
2 19785 82.6251 31.0166 0014039 88.9969 84.3757 12.64341251715599
Epoch: Apr 16, 2026 • Age: 13 hours

Current Status

Altitude 1405.7 km
Velocity 7.17 km/s
Sub-Earth Point 58.12°N, 49.14°W
Launch Date Feb 10, 1989
Age 37.1 years
Type other

Technical Details

Classification Payload
Mass 225.00 kg
Dry Mass 225.00 kg
Total Mass 225.00 kg
Length 1.60 m
Diameter 0.80 m
Span 7.00 m
Shape Cyl + Ant
Manufacturer NPOPM
Bus Type Strela-3
Phase Status In Orbit
Owner/State UNKS/SU

Most Searched